BRO-14

Last updated on Mon Sep 16 2024 00:02:04 GMT+0000 (Coordinated Universal Time)

1 60551U 24149CM 24258.91544721 .00003005 00000+0 29225-3 0 9991 2 60551 97.7506 333.9762 0008571 77.4615 282.7563 14.93290206 4336
UTC large
Height (km)
Speed (km/s)
/
Latitude / Longitude
Inclination (degrees)
Orbital Period (minutes)
Azimuth
Elevation
Range (km)
Doppler Factor

Next 0 passes for location: London (51.5072 / 0.1276)

Sorry there are no passes over London.